Location: Claremont
(33.9858°S, 18.4575°E)
Time: 12:16:45
(UTC+00:00)

Cosmos 1743 - Pass Details

Date: 03 March 2021
Orbit: 509 x 527 km, 82.6° (Epoch: 10 April)

Event Time Altitude Azimuth Distance (km) Brightness Sun altitude
Rises 17:48:34 0° 173° (S) 2,659 6.4 -6.7°
Reaches altitude 10° 17:50:58 10° 161° (SSE) 1,766 5.3 -7.2°
Maximum altitude 17:54:17 27° 101° (ESE) 1,032 3.7 -7.9°
Drops below altitude 10° 17:57:35 10° 42° (NE) 1,751 4.9 -8.5°
Enters shadow 17:58:52 - 34° (NE) 2,223 5.5 -8.8°
